Вернуться в каталог

STARLINK-37638

АктивенСвязьSSO
NORAD 69144·PAYLOAD·🇺🇸 United States

Запущен May 20, 2026 с Vandenberg Space Force Base

Loading…

Ближайшие Пролёты (ближайшие 24 часа)

TLE

СвежийSource: CelesTrak SupGP

Эпоха: Sep 15, 2026, 03:28 UTC

1 69144C 26110W   26258.14493056 -.00053366  00000+0 -16565-2 0  2586
2 69144  97.2850  93.3381 0001979  90.8466 107.4624 15.33467914    11

Отслеживайте STARLINK-37638 в реальном времени с AllMySat

Download on the App Store